CST,Max TemperatureF,Mean TemperatureF,Min TemperatureF,Max Dew PointF,MeanDew PointF,Min DewpointF,Max Humidity, Mean Humidity, Min Humidity, Max Sea Level PressureIn, Mean Sea Level PressureIn, Min Sea Level PressureIn, Max VisibilityMiles, Mean VisibilityMiles, Min VisibilityMiles, Max Wind SpeedMPH, Mean Wind SpeedMPH, Max Gust SpeedMPH,PrecipitationIn, CloudCover, Events, WindDirDegrees
2011-10-1,80,72,64,73,68,64,100,93,74,30.07,30.00,29.94,6,5,1,14,6,,0.00,6,Rain-Thunderstorm,9
2011-10-2,78,72,66,73,69,66,100,96,69,30.06,30.01,29.95,6,6,2,10,4,,0.00,7,Fog-Rain-Thunderstorm,142
2011-10-3,80,72,64,75,69,64,100,92,69,30.07,30.02,29.94,6,6,6,8,5,,0.00,6,Rain-Thunderstorm,96
2011-10-4,78,72,66,73,70,66,100,95,78,30.08,30.02,29.95,6,5,2,10,2,,0.00,5,Rain,241
2011-10-5,80,73,66,73,70,66,100,96,74,30.06,30.00,29.94,6,5,1,9,3,,0.00,5,Rain-Thunderstorm,243
2011-10-6,80,72,64,73,69,64,100,93,70,30.02,29.97,29.91,6,4,0,9,3,,0.00,5,Fog-Rain-Thunderstorm,174
2011-10-7,80,73,66,73,70,66,100,91,69,30.01,29.97,29.89,6,6,6,12,4,,0.00,5,Rain-Thunderstorm,251
2011-10-8,82,74,66,75,70,66,100,92,61,30.02,29.95,29.89,6,5,1,13,4,,0.00,6,Fog-Rain-Thunderstorm,128
2011-10-9,77,72,68,72,69,68,100,95,83,30.02,29.97,29.91,6,6,2,10,2,,0.00,6,Fog-Rain,267
2011-10-10,71,68,66,72,69,66,100,100,100,30.07,30.01,29.96,6,4,1,10,2,,0.00,6,Fog-Rain,259
2011-10-11,73,70,66,73,68,66,100,99,94,30.10,30.03,29.99,6,4,0,14,4,,0.00,7,Fog-Rain,256
2011-10-12,71,64,57,68,65,57,100,97,88,30.10,30.04,29.97,6,3,0,13,3,,0.00,7,Fog-Rain,219
2011-10-13,69,66,64,68,66,64,100,99,94,30.07,30.00,29.94,6,2,0,9,2,,0.00,6,Fog-Rain,229
2011-10-14,69,68,66,70,66,64,100,99,94,30.06,29.98,29.91,6,2,0,13,4,,0.00,6,Fog-Rain,253
2011-10-15,73,68,64,66,65,64,100,96,78,30.10,30.01,29.95,6,3,0,12,5,,0.00,6,Fog-Rain,252
2011-10-16,68,66,64,66,64,63,100,94,88,30.10,30.03,29.98,6,4,0,8,2,,0.00,6,Fog-Rain,279
2011-10-17,68,65,62,66,64,63,100,98,88,30.07,30.00,29.96,6,3,1,12,5,,0.00,7,Fog-Rain,264
2011-10-18,69,66,64,68,65,64,100,98,88,30.08,30.02,29.96,5,2,0,10,5,,0.00,6,Fog-Rain,279
2011-10-19,73,68,64,66,64,63,100,95,78,30.14,30.06,30.01,6,4,0,10,4,,0.00,6,Fog-Rain,268
2011-10-20,75,70,64,66,65,63,100,94,69,30.14,30.06,30.01,6,3,0,10,3,,0.00,7,Fog-Rain,256
2011-10-21,71,68,64,68,65,64,100,96,83,30.09,30.02,29.98,6,3,0,6,3,,0.00,6,Fog-Rain,232
2011-10-22,73,68,64,66,65,64,100,92,73,30.04,29.97,29.91,6,4,1,13,3,,0.00,6,Fog-Rain,255
2011-10-23,73,68,64,68,65,64,100,92,78,30.07,29.97,29.92,6,5,1,10,3,,0.00,6,Fog-Rain,229
2011-10-24,75,70,64,70,65,63,100,89,69,30.06,30.01,29.94,6,6,0,9,3,,0.00,5,Fog,221
2011-10-25,82,73,64,68,62,59,94,74,45,30.01,29.96,29.88,6,6,1,16,7,,0.00,3,Fog,68
2011-10-26,82,74,66,70,64,59,94,76,45,29.95,29.90,29.81,6,6,6,15,7,,0.00,4,Fog-Rain,152
2011-10-27,80,73,66,68,66,64,100,88,58,29.95,29.88,29.82,6,5,1,15,5,,0.00,6,Fog-Rain-Thunderstorm,83
2011-10-28,78,72,66,70,67,66,100,87,65,29.97,29.91,29.84,6,5,1,12,4,,0.00,6,Fog-Rain-Thunderstorm,215
2011-10-29,78,72,66,70,66,64,100,87,61,29.99,29.93,29.85,6,5,2,8,4,,0.00,5,Fog-Rain,87
2011-10-30,78,71,64,68,66,63,100,87,69,29.99,29.94,29.88,6,5,2,9,4,,0.00,6,Fog-Rain-Thunderstorm,70
2011-10-31,75,70,66,68,66,64,94,87,73,29.99,29.93,29.86,6,6,5,10,4,,0.00,6,Rain,32